Weather History for Marysville, OH

Change the Weather History Date:

Tuesday, November 12, 2013

  Actual Average (KDLZ) Record (KDLZ)
Temperature  
Mean Temperature 26 °F -  
Max Temperature 31 °F 48 °F 72 °F (1945)
Min Temperature 20 °F 32 °F 19 °F (1950)
Degree Days  
Heating Degree Days 40    
Moisture  
Dew Point 20 °F    
Average Humidity 77    
Maximum Humidity 90    
Minimum Humidity 62    
Precipitation  
Precipitation 0.00 in - - ()
Sea Level Pressure  
Sea Level Pressure 30.46 in    
Wind  
Wind Speed 10 mph (NNW)    
Max Wind Speed 15 mph    
Max Gust Speed 21 mph    
Visibility 9 miles    
Events      
Averages and records for this station are not official NWS values.
T = Trace of Precipitation, MM = Missing Value Source: NWS Daily Summary

Daily Weather History Graph

Daily Weather History Graph

Search for Another Location

Airport:

Trip Planner

Search our weather history database for the weather conditions in past years. The results will help you decide how hot, cold, wet, or windy it might be!

Date:

Astronomy

Nov. 12, 2013 Rise Set
Actual Time 7:15 AM EST 5:18 PM EST
Civil Twilight 6:46 AM EST 5:47 PM EST
Nautical Twilight 6:14 AM EST 6:20 PM EST
Astronomical Twilight 5:42 AM EST 6:52 PM EST
Moon 2:33 PM EST (11/12) 2:04 AM EST (11/12)
Length of Visible Light 11h 00m
Length of Day
10h 02m
Waxing Gibbous, 76% of the Moon is Illuminated
Nov 12
Waxing Gibbous
Nov 17
Full
Nov 25
Last Quarter
Dec 2
New
Dec 9
First Quarter

Hourly Weather History & Observations

Time (EST) Temp. Windchill Dew Point Humidity Pressure Visibility Wind Dir Wind Speed Gust Speed Precip Events Conditions
12:14 AM 29.3 °F 18.2 °F 26.6 °F 90% 30.25 in 1.8 mi North 15.0 mph 20.7 mph N/A   Overcast
12:35 AM 28.6 °F 17.7 °F 26.1 °F 90% 30.28 in 1.2 mi North 13.8 mph 20.7 mph N/A   Overcast
12:54 AM 27.9 °F 17.8 °F 25.3 °F 90% 30.28 in 1.5 mi North 11.5 mph 17.3 mph N/A   Overcast
1:14 AM 27.5 °F 16.3 °F 24.8 °F 90% 30.29 in 1.5 mi North 13.8 mph 19.6 mph N/A   Overcast
1:35 AM 27.3 °F 19.9 °F 24.8 °F 90% 30.29 in 1.8 mi North 6.9 mph 11.5 mph N/A   Overcast
1:54 AM 27.3 °F 19.1 °F 24.8 °F 90% 30.29 in 3.0 mi North 8.1 mph - N/A   Overcast
2:14 AM 27.5 °F 18.6 °F 24.4 °F 88% 30.30 in 4.0 mi North 9.2 mph - N/A   Overcast
2:35 AM 27.3 °F 18.4 °F 24.4 °F 89% 30.30 in 10.0 mi North 9.2 mph - N/A   Mostly Cloudy
2:54 AM 27.5 °F 18.0 °F 23.9 °F 86% 30.31 in 10.0 mi North 10.4 mph 17.3 mph N/A   Mostly Cloudy
3:14 AM 27.5 °F 17.4 °F 21.9 °F 80% 30.32 in 10.0 mi North 11.5 mph 18.4 mph N/A   Scattered Clouds
3:34 AM 27.5 °F 18.0 °F 20.3 °F 74% 30.32 in 10.0 mi North 10.4 mph 16.1 mph N/A   Clear
3:54 AM 27.3 °F 18.4 °F 20.7 °F 76% 30.33 in 10.0 mi North 9.2 mph - N/A   Clear
4:15 AM 27.0 °F 17.3 °F 21.7 °F 81% 30.34 in 10.0 mi North 10.4 mph - N/A   Clear
4:34 AM 26.6 °F 16.2 °F 21.2 °F 80% 30.35 in 10.0 mi North 11.5 mph - N/A   Clear
4:54 AM 26.2 °F 17.1 °F 20.7 °F 79% 30.36 in 10.0 mi North 9.2 mph - N/A   Clear
5:15 AM 25.7 °F 15.1 °F 19.9 °F 79% 30.36 in 10.0 mi North 11.5 mph 17.3 mph N/A   Clear
5:34 AM 25.3 °F 15.3 °F 19.6 °F 79% 30.37 in 10.0 mi North 10.4 mph 16.1 mph N/A   Clear
5:54 AM 24.6 °F 14.4 °F 18.9 °F 79% 30.39 in 10.0 mi North 10.4 mph - N/A   Clear
6:15 AM 25.0 °F 14.2 °F 17.2 °F 72% 30.39 in 10.0 mi North 11.5 mph - N/A   Scattered Clouds
6:34 AM 25.3 °F 14.7 °F 17.1 °F 71% 30.40 in 10.0 mi North 11.5 mph 19.6 mph N/A   Overcast
6:54 AM 25.0 °F 15.5 °F 17.6 °F 74% 30.41 in 10.0 mi North 9.2 mph - N/A   Overcast
7:15 AM 23.9 °F 13.5 °F 18.0 °F 78% 30.42 in 10.0 mi North 10.4 mph 16.1 mph N/A   Overcast
7:34 AM 23.4 °F 12.8 °F 16.7 °F 76% 30.43 in 10.0 mi North 10.4 mph - N/A   Mostly Cloudy
7:54 AM 22.5 °F 12.4 °F 16.2 °F 77% 30.45 in 10.0 mi North 9.2 mph - N/A   Scattered Clouds
8:15 AM 22.6 °F 13.4 °F 16.5 °F 77% 30.46 in 10.0 mi North 8.1 mph - N/A   Clear
8:34 AM 23.5 °F 14.5 °F 17.1 °F 76% 30.47 in 10.0 mi North 8.1 mph - N/A   Clear
8:54 AM 24.1 °F 13.1 °F 17.6 °F 76% 30.48 in 10.0 mi North 11.5 mph - N/A   Clear
9:14 AM 24.8 °F 15.3 °F 18.0 °F 75% 30.49 in 10.0 mi North 9.2 mph - N/A   Clear
9:34 AM 25.5 °F 14.3 °F 18.5 °F 75% 30.49 in 10.0 mi North 12.7 mph 16.1 mph N/A   Clear
9:55 AM 26.1 °F 15.0 °F 18.7 °F 74% 30.49 in 10.0 mi North 12.7 mph - N/A   Clear
10:14 AM 26.6 °F 16.2 °F 19.0 °F 73% 30.50 in 10.0 mi North 11.5 mph 16.1 mph N/A   Clear
10:34 AM 27.0 °F 16.7 °F 19.4 °F 73% 30.50 in 10.0 mi North 11.5 mph - N/A   Clear
10:55 AM 27.3 °F 17.7 °F 19.8 °F 73% 30.51 in 10.0 mi North 10.4 mph 16.1 mph N/A   Clear
11:14 AM 27.5 °F 16.3 °F 19.9 °F 73% 30.51 in 10.0 mi NNW 13.8 mph - N/A   Clear
11:34 AM 28.0 °F 18.6 °F 20.3 °F 73% 30.51 in 10.0 mi North 10.4 mph - N/A   Scattered Clouds
11:54 AM 28.0 °F 20.0 °F 20.3 °F 73% 30.51 in 10.0 mi North 8.1 mph - N/A   Scattered Clouds
12:14 PM 28.6 °F 20.7 °F 20.5 °F 72% 30.50 in 10.0 mi North 8.1 mph - N/A   Mostly Cloudy
12:35 PM 29.3 °F 22.3 °F 20.8 °F 71% 30.50 in 10.0 mi North 6.9 mph - N/A   Scattered Clouds
12:54 PM 29.8 °F 21.5 °F 21.2 °F 70% 30.51 in 10.0 mi North 9.2 mph - N/A   Clear
1:15 PM 30.2 °F 21.3 °F 21.4 °F 70% 30.50 in 10.0 mi North 10.4 mph - N/A   Scattered Clouds
1:34 PM 30.7 °F 22.0 °F 21.9 °F 70% 30.50 in 10.0 mi North 10.4 mph - N/A   Mostly Cloudy
1:54 PM 30.6 °F 21.8 °F 21.4 °F 69% 30.50 in 10.0 mi North 10.4 mph - N/A   Scattered Clouds
2:14 PM 30.9 °F 21.7 °F 21.7 °F 69% 30.50 in 10.0 mi North 11.5 mph - N/A   Mostly Cloudy
2:34 PM 30.7 °F 22.0 °F 21.7 °F 69% 30.51 in 10.0 mi North 10.4 mph 16.1 mph N/A   Mostly Cloudy
2:54 PM 30.0 °F 21.1 °F 21.4 °F 70% 30.52 in 10.0 mi North 10.4 mph 16.1 mph N/A   Mostly Cloudy
3:14 PM 31.6 °F 23.7 °F 21.9 °F 67% 30.52 in 10.0 mi North 9.2 mph - N/A   Mostly Cloudy
3:34 PM 31.1 °F 21.9 °F 20.8 °F 66% 30.52 in 10.0 mi NNW 11.5 mph - N/A   Scattered Clouds
3:55 PM 30.0 °F 21.1 °F 20.5 °F 68% 30.53 in 10.0 mi NNW 10.4 mph 17.3 mph N/A   Mostly Cloudy
4:14 PM 30.2 °F 21.9 °F 20.3 °F 67% 30.53 in 10.0 mi NNW 9.2 mph - N/A   Mostly Cloudy
4:34 PM 30.2 °F 20.8 °F 19.6 °F 65% 30.53 in 10.0 mi North 11.5 mph 20.7 mph N/A   Mostly Cloudy
4:54 PM 30.0 °F 20.0 °F 18.7 °F 63% 30.53 in 10.0 mi NNW 12.7 mph 19.6 mph N/A   Mostly Cloudy
5:14 PM 29.3 °F 20.8 °F 17.8 °F 62% 30.53 in 10.0 mi NNW 9.2 mph - N/A   Scattered Clouds
5:34 PM 28.8 °F 21.7 °F 18.1 °F 65% 30.53 in 10.0 mi NNW 6.9 mph - N/A   Clear
5:54 PM 27.7 °F 22.4 °F 18.3 °F 68% 30.53 in 10.0 mi NW 4.6 mph - N/A   Clear
6:14 PM 25.7 °F 20.1 °F 18.3 °F 74% 30.53 in 10.0 mi West 4.6 mph - N/A   Clear
6:34 PM 24.3 °F 18.4 °F 18.1 °F 77% 30.52 in 10.0 mi West 4.6 mph - N/A   Clear
6:54 PM 20.8 °F 16.0 °F 16.2 °F 82% 30.52 in 10.0 mi West 3.5 mph - N/A   Clear
7:14 PM 21.4 °F 15.1 °F 16.7 °F 82% 30.53 in 10.0 mi West 4.6 mph - N/A   Scattered Clouds
7:34 PM 25.2 °F 19.5 °F 20.5 °F 82% 30.53 in 10.0 mi West 4.6 mph - N/A   Mostly Cloudy
7:55 PM 26.6 °F 21.2 °F 20.5 °F 78% 30.53 in 10.0 mi West 4.6 mph - N/A   Mostly Cloudy
8:14 PM 24.4 °F 17.5 °F 19.4 °F 81% 30.54 in 10.0 mi WNW 5.8 mph - N/A   Clear
8:34 PM 24.6 °F 16.7 °F 19.9 °F 82% 30.54 in 10.0 mi WNW 6.9 mph - N/A   Clear
8:55 PM 25.2 °F 17.3 °F 20.5 °F 82% 30.55 in 10.0 mi WNW 6.9 mph - N/A   Scattered Clouds
9:14 PM 25.5 °F 17.8 °F 21.2 °F 84% 30.55 in 10.0 mi WNW 6.9 mph - N/A   Mostly Cloudy
9:34 PM 25.3 °F 18.5 °F 20.8 °F 83% 30.55 in 10.0 mi WNW 5.8 mph - N/A   Scattered Clouds
9:55 PM 24.8 °F 19.1 °F 20.3 °F 83% 30.56 in 10.0 mi WNW 4.6 mph - N/A   Scattered Clouds
10:14 PM 25.2 °F 20.9 °F 21.2 °F 85% 30.55 in 10.0 mi WNW 3.5 mph - N/A   Overcast
10:34 PM 26.6 °F 20.0 °F 21.0 °F 79% 30.56 in 10.0 mi NW 5.8 mph - N/A   Mostly Cloudy
10:54 PM 26.8 °F 20.2 °F 20.3 °F 77% 30.56 in 10.0 mi NW 5.8 mph - N/A   Mostly Cloudy
11:14 PM 25.0 °F 20.7 °F 19.2 °F 79% 30.56 in 10.0 mi WNW 3.5 mph - N/A   Scattered Clouds
11:34 PM 23.0 °F 17.0 °F 18.3 °F 82% 30.55 in 10.0 mi WNW 4.6 mph - N/A   Clear
11:54 PM 23.7 °F 17.8 °F 18.3 °F 80% 30.55 in 10.0 mi WNW 4.6 mph - N/A   Clear